Location: Faicchio
(41.2833°N, 14.4833°E)
Time: 07:14:47
(UTC+00:00)

Cosmos 1544 Rocket - Pass Details

Date: 15 June 2025
Orbit: 598 x 625 km, 82.5° (Epoch: 16 July)

Event Time Altitude Azimuth Distance (km) Brightness Sun altitude
Rises 02:00:52 0° 351° (N) 2,857 7.6 -13.3°
Reaches altitude 10° 02:03:05 10° 351° (N) 1,948 6.7 -13.0°
Maximum altitude 02:07:24 85° 262° (W) 606 3.4 -12.5°
Drops below altitude 10° 02:11:40 10° 176° (S) 1,930 5.7 -12.0°
Enters shadow 02:12:27 - 175° (S) 2,250 6.0 -11.9°
